Weather History for Grove, OK

Change the Weather History Date:

Saturday, January 19, 2013

  Actual Average (KSLG) Record (KSLG)
Temperature  
Mean Temperature 48 °F -  
Max Temperature 64 °F 44 °F 68 °F (2006)
Min Temperature 32 °F 27 °F 10 °F (2008)
Degree Days  
Heating Degree Days 17    
Moisture  
Dew Point 34 °F    
Average Humidity 56    
Maximum Humidity 100    
Minimum Humidity 34    
Precipitation  
Precipitation 0.00 in - - ()
Sea Level Pressure  
Sea Level Pressure 30.15 in    
Wind  
Wind Speed 10 mph (SSW)    
Max Wind Speed 16 mph    
Max Gust Speed 21 mph    
Visibility 10 miles    
Events      
Averages and records for this station are not official NWS values.
T = Trace of Precipitation, MM = Missing Value Source: NWS Daily Summary

Daily Weather History Graph

Daily Weather History Graph

Search for Another Location

Airport:

Trip Planner

Search our weather history database for the weather conditions in past years. The results will help you decide how hot, cold, wet, or windy it might be!

Date:

Astronomy

Jan. 19, 2013 Rise Set
Actual Time 7:28 AM CST 5:31 PM CST
Civil Twilight 7:00 AM CST 5:59 PM CST
Nautical Twilight 6:29 AM CST 6:30 PM CST
Astronomical Twilight 5:58 AM CST 7:01 PM CST
Moon 11:56 AM CST 1:06 AM CST
Length of Visible Light 10h 58m
Length of Day
10h 02m
First Quarter, 57% of the Moon is Illuminated
Jan 19
First Quarter
Jan 26
Full
Feb 3
Last Quarter
Feb 10
New
Feb 17
First Quarter

Hourly Weather History & Observations

Time (CST) Temp. Windchill Dew Point Humidity Pressure Visibility Wind Dir Wind Speed Gust Speed Precip Events Conditions
12:15 AM 46.4 °F 40.4 °F 32.0 °F 57% 30.19 in 10.0 mi South 13.8 mph 17.3 mph N/A   Clear
12:35 AM 46.4 °F 40.4 °F 32.0 °F 57% 30.19 in 10.0 mi SSW 13.8 mph 18.4 mph N/A   Clear
12:55 AM 46.4 °F 40.7 °F 32.0 °F 57% 30.19 in 10.0 mi South 12.7 mph - N/A   Clear
1:15 AM 46.4 °F 40.7 °F 32.0 °F 57% 30.19 in 10.0 mi SSW 12.7 mph 17.3 mph N/A   Clear
1:35 AM 46.4 °F 40.7 °F 32.0 °F 57% 30.18 in 10.0 mi SSW 12.7 mph 17.3 mph N/A   Clear
1:55 AM 46.4 °F 40.4 °F 32.0 °F 57% 30.18 in 10.0 mi South 13.8 mph 19.6 mph N/A   Clear
2:15 AM 46.4 °F 40.7 °F 32.0 °F 57% 30.18 in 10.0 mi South 12.7 mph 18.4 mph N/A   Clear
2:35 AM 46.4 °F 40.1 °F 32.0 °F 57% 30.17 in 10.0 mi South 15.0 mph 19.6 mph N/A   Clear
2:55 AM 46.4 °F 40.1 °F 32.0 °F 57% 30.17 in 10.0 mi South 15.0 mph 20.7 mph N/A   Clear
3:15 AM 46.4 °F 41.1 °F 32.0 °F 57% 30.17 in 10.0 mi South 11.5 mph - N/A   Clear
3:35 AM 46.4 °F 40.7 °F 32.0 °F 57% 30.16 in 10.0 mi South 12.7 mph - N/A   Clear
3:55 AM 46.4 °F 40.7 °F 32.0 °F 57% 30.16 in 10.0 mi South 12.7 mph 18.4 mph N/A   Clear
4:15 AM 46.4 °F 40.1 °F 32.0 °F 57% 30.15 in 10.0 mi SSW 15.0 mph - N/A   Clear
4:35 AM 46.4 °F 40.4 °F 32.0 °F 57% 30.15 in 10.0 mi SSW 13.8 mph - N/A   Clear
4:55 AM 46.4 °F 41.1 °F 32.0 °F 57% 30.15 in 10.0 mi SSW 11.5 mph - N/A   Clear
5:15 AM 44.6 °F 39.7 °F 32.0 °F 61% 30.15 in 10.0 mi South 9.2 mph 16.1 mph N/A   Clear
5:35 AM 44.6 °F 40.7 °F 32.0 °F 61% 30.16 in 10.0 mi South 6.9 mph - N/A   Clear
5:55 AM 44.6 °F 39.7 °F 32.0 °F 61% 30.15 in 10.0 mi South 9.2 mph - N/A   Clear
6:55 AM 44.6 °F 39.7 °F 32.0 °F 61% 30.14 in 10.0 mi SSW 9.2 mph - N/A   Clear
7:15 AM 44.6 °F 39.7 °F 32.0 °F 61% 30.15 in 10.0 mi SSW 9.2 mph - N/A   Clear
7:55 AM 44.6 °F 40.2 °F 32.0 °F 61% 30.15 in 10.0 mi South 8.1 mph 16.1 mph N/A   Clear
8:15 AM 46.4 °F 41.9 °F 33.8 °F 62% 30.15 in 10.0 mi South 9.2 mph - N/A   Clear
8:35 AM 48.2 °F - 33.8 °F 58% 30.16 in 10.0 mi South 10.4 mph - N/A   Clear
9:35 AM 51.8 °F - 33.8 °F 50% 30.17 in 10.0 mi SSW 13.8 mph 18.4 mph N/A   Clear
9:55 AM 53.6 °F - 33.8 °F 47% 30.18 in 10.0 mi SSW 13.8 mph - N/A   Clear
10:15 AM 53.6 °F - 33.8 °F 47% 30.19 in 10.0 mi SSW 9.2 mph - N/A   Clear
10:35 AM 55.4 °F - 33.8 °F 44% 30.19 in 10.0 mi SSW 10.4 mph 17.3 mph N/A   Clear
11:15 AM 59.0 °F - 33.8 °F 39% 30.17 in 10.0 mi SSW 15.0 mph - N/A   Clear
11:35 AM 59.0 °F - 33.8 °F 39% 30.16 in 10.0 mi SW 13.8 mph 20.7 mph N/A   Clear
11:55 AM 60.8 °F - 33.8 °F 36% 30.15 in 10.0 mi SW 11.5 mph 18.4 mph N/A   Clear
12:15 PM 60.8 °F - 33.8 °F 36% 30.13 in 10.0 mi SW 16.1 mph 19.6 mph N/A   Clear
12:35 PM 60.8 °F - 35.6 °F 39% 30.12 in 10.0 mi SW 11.5 mph - N/A   Clear
12:55 PM 62.6 °F - 33.8 °F 34% 30.12 in 10.0 mi SW 12.7 mph 17.3 mph N/A   Clear
1:15 PM 62.6 °F - 35.6 °F 37% 30.11 in 10.0 mi SW 10.4 mph - N/A   Clear
1:35 PM 62.6 °F - 33.8 °F 34% 30.10 in 10.0 mi WSW 10.4 mph - N/A   Clear
1:55 PM 62.6 °F - 35.6 °F 37% 30.10 in 10.0 mi SW 10.4 mph - N/A   Clear
2:15 PM 62.6 °F - 35.6 °F 37% 30.08 in 10.0 mi SW 10.4 mph - N/A   Clear
2:35 PM 62.6 °F - 35.6 °F 37% 30.08 in 10.0 mi SW 9.2 mph - N/A   Clear
2:55 PM 64.4 °F - 35.6 °F 34% 30.09 in 10.0 mi West 9.2 mph - N/A   Clear
3:15 PM 64.4 °F - 35.6 °F 34% 30.09 in 10.0 mi SW 8.1 mph - N/A   Clear
3:35 PM 62.6 °F - 35.6 °F 37% 30.08 in 10.0 mi SSW 12.7 mph 17.3 mph N/A   Clear
3:55 PM 62.6 °F - 35.6 °F 37% 30.09 in 10.0 mi SW 12.7 mph - N/A   Clear
4:15 PM 62.6 °F - 35.6 °F 37% 30.08 in 10.0 mi SSW 11.5 mph 16.1 mph N/A   Clear
4:35 PM 62.6 °F - 35.6 °F 37% 30.10 in 10.0 mi SW 4.6 mph - N/A   Clear
4:55 PM 60.8 °F - 35.6 °F 39% 30.11 in 10.0 mi SW 3.5 mph - N/A   Clear
5:15 PM 59.0 °F - 35.6 °F 42% 30.11 in 10.0 mi West 3.5 mph - N/A   Clear
5:35 PM 57.2 °F - 35.6 °F 44% 30.12 in 10.0 mi Calm Calm - N/A   Clear
5:55 PM 55.4 °F - 35.6 °F 47% 30.13 in 10.0 mi Calm Calm - N/A   Clear
6:15 PM 55.4 °F - 35.6 °F 47% 30.14 in 10.0 mi Calm Calm - N/A   Clear
6:35 PM 51.8 °F - 35.6 °F 54% 30.15 in 10.0 mi Calm Calm - N/A   Clear
6:55 PM 48.2 °F - 35.6 °F 62% 30.16 in 10.0 mi Calm Calm - N/A   Clear
7:15 PM 46.4 °F - 35.6 °F 66% 30.16 in 10.0 mi Calm Calm - N/A   Clear
7:35 PM 46.4 °F - 35.6 °F 66% 30.17 in 10.0 mi Calm Calm - N/A   Clear
7:55 PM 44.6 °F - 35.6 °F 71% 30.17 in 10.0 mi Calm Calm - N/A   Clear
8:15 PM 44.6 °F - 35.6 °F 71% 30.18 in 10.0 mi Calm Calm - N/A   Clear
8:55 PM 39.2 °F - 33.8 °F 81% 30.19 in 10.0 mi Calm Calm - N/A   Clear
9:15 PM 39.2 °F - 33.8 °F 81% 30.19 in 10.0 mi Calm Calm - N/A   Clear
9:35 PM 37.4 °F - 33.8 °F 87% 30.20 in 10.0 mi Calm Calm - N/A   Clear
9:55 PM 37.4 °F - 33.8 °F 87% 30.20 in 10.0 mi Calm Calm - N/A   Clear
10:15 PM 37.4 °F - 33.8 °F 87% 30.20 in 10.0 mi Calm Calm - N/A   Clear
10:35 PM 35.6 °F - 33.8 °F 93% 30.21 in 10.0 mi Calm Calm - N/A   Clear
10:55 PM 35.6 °F - 35.6 °F 100% 30.22 in 10.0 mi Calm Calm - N/A   Clear
11:15 PM 35.6 °F - 33.8 °F 93% 30.22 in 10.0 mi Calm Calm - N/A   Clear
11:35 PM 32.0 °F - 32.0 °F 100% 30.23 in 10.0 mi Calm Calm - N/A   Clear
11:55 PM 33.8 °F - 33.8 °F 100% 30.22 in 10.0 mi Calm Calm - N/A   Clear